Location: Key Biscayne
(25.6930°N, 80.1630°W)
Time: 20:28:22
(UTC-05:00)

Hubble Space Telescope - Visible Passes

Search period start: 17 February 2018 00:00
Search period end: 27 February 2018 00:00
Orbit: 537 x 541 km, 28.5° (Epoch: 16 February)

Date Brightness Start Highest point End Pass type
(mag) Time Alt. Az. Time Alt. Az. Time Alt. Az.
17 Feb 3.6 04:34:40 14° SE 04:34:40 14° SE 04:35:57 10° ESE visible
17 Feb 1.3 06:10:22 10° WSW 06:14:25 55° SSE 06:18:29 10° E visible
18 Feb 3.7 04:25:22 14° ESE 04:25:22 14° ESE 04:26:15 10° ESE visible
18 Feb 1.0 06:00:45 15° WSW 06:04:09 69° SSE 06:08:16 10° E visible
19 Feb 4.0 04:15:58 12° E 04:15:58 12° E 04:16:19 10° E visible
19 Feb 0.7 05:51:20 22° WSW 05:53:53 83° SSE 05:58:02 10° ENE visible
20 Feb 0.7 05:41:50 33° W 05:43:38 84° NNW 05:47:46 10° ENE visible
21 Feb 0.7 05:32:15 45° W 05:33:23 74° N 05:37:32 10° ENE visible
22 Feb 0.7 05:22:37 58° NW 05:23:10 66° N 05:27:17 10° ENE visible
23 Feb 0.9 05:12:56 61° N 05:12:57 61° N 05:17:03 10° ENE visible
24 Feb 1.3 05:03:15 53° NNE 05:03:15 53° NNE 05:06:49 10° ENE visible
25 Feb 1.8 04:53:33 43° NE 04:53:33 43° NE 04:56:36 10° E visible
26 Feb 2.3 04:43:51 34° ENE 04:43:51 34° ENE 04:46:23 10° E visible
26 Feb 0.8 06:19:31 10° WNW 06:23:39 85° SSW 06:27:47 10° ESE visible
